{"data":{"norad_id":58091,"epoch":"2026-09-19T17:58:23.455776Z","epoch_age_seconds":205325,"freshness":"STALE","line1":"1 58091U 23160S   26262.74888259 -.00000581  00000+0 -11579-4 0  9996","line2":"2 58091  43.0026  62.0279 0001216 268.2765  91.7948 15.27572040162620","mean_motion":15.2757204,"eccentricity":0.0001216,"inclination_deg":43.0026,"raan_deg":62.0279,"arg_perigee_deg":268.2765,"mean_anomaly_deg":91.7948,"bstar":-1.1579e-5,"rev_number":16262,"period_min":94.267239926701,"perigee_km":482.23860811911,"apogee_km":483.90725437439,"semimajor_km":6861.2099312467,"source":"CELESTRAK","updated_at":"2026-09-21T09:00:33.784624Z"}}